Location: Rounton
(54.4000°N, 1.3500°W)
Time: 14:34:26
(UTC+00:00)

Transit 2A Rocket - Pass Details

Date: 05 December 2021
Orbit: 584 x 918 km, 66.7° (Epoch: 17 January)

Event Time Altitude Azimuth Distance (km) Brightness Sun altitude
Rises 07:21:05 0° 196° (SSW) 3,352 8.5 -6.6°
Reaches altitude 10° 07:23:32 10° 191° (S) 2,467 7.9 -6.3°
Maximum altitude 07:29:00 47° 119° (ESE) 1,168 6.6 -5.6°
Drops below altitude 10° 07:34:48 10° 48° (NE) 2,611 8.0 -4.9°
Sets 07:37:27 0° 43° (NE) 3,567 8.6 -4.6°
